Kezdőlap
METAR-TAF:

METAR-TAF

Repülőterek :

Viktória-vízesés, Zimbabwe

földrajzi szélesség: 18-06S, földrajzi hosszúság: 025-51E, magasság: 1061 m

Jelenlegi meteorológiai megfigyelések

A jelentés 1 órával és 22 perccel ezelõtt készült, 05:00 UTC
Kelet-délkeleti szél 8 kt
Hőmérséklet 11°C
Páratartalom 66%
Légköri nyomás 1026 hPa
Látótávolság 10 km, vagy több
felhőtlen 1500 m magasságban, és nincs gomolyfelhõ

METAR: FVFA 280500Z 11008KT CAVOK 11/05 Q1026 NOSIG

Idő: 08:22 (06:22 UTC)


TAF: hiányzik

Meteorológiai megfigyelések és előrejelzések több, mint 4000 repülőtéren (METAR és TAF jelentéseket).

A térképen piros és sárga pontok jelzik az elérhető meteorológiai állomásokat.

Mozgassa az egeret a pont fölött, hogy megjelenjen az állomás neve.

Azután kattintson az időjárási megfigyelések és előrejelzések megtekintéséhez.

A térkép megváltoztatása: kattintson a fekete keresztel jelölt zöld gombra ráközelítéshez, a vonallal jelölt zöld gombra távolításhoz, vagy a zöld nyilakra a szomszédos térképek eléréséhez.


METAR-TAF: